<?xml version="1.0" encoding="UTF-8" standalone="no" ?>
<gpx xmlns="http://www.topografix.com/GPX/1/1" xmlns:xsi="http://www.w3.org/2001/XMLSchema-instance" xsi:schemaLocation="http://www.topografix.com/GPX/1/1 http://www.topografix.com/GPX/1/1/gpx.xsd" version="1.1" creator="VisuGPX - https://www.visugpx.com">
  <metadata>
    <name>Bruniquel 1 jour</name>
    <desc><![CDATA[Superbe sortie autour de Bruniquel dans le Tarn et Garonne
]]></desc>
  </metadata>
  <trk>
    <name><![CDATA[1 Bruniquel 72kms-R]]></name>
    <trkseg>
      <trkpt lat="44.05494" lon="1.66508">
        <ele>152</ele>
        <time>2012-09-15T13:56:55Z</time>
      </trkpt>
      <trkpt lat="44.05514" lon="1.66446">
        <ele>152</ele>
        <time>2012-09-15T13:56:55Z</time>
      </trkpt>
      <trkpt lat="44.05399" lon="1.6619">
        <ele>133</ele>
        <time>2012-09-15T13:56:55Z</time>
      </trkpt>
      <trkpt lat="44.05364" lon="1.66301">
        <ele>133</ele>
        <time>2012-09-15T13:56:55Z</time>
      </trkpt>
      <trkpt lat="44.05363" lon="1.66351">
        <ele>133</ele>
        <time>2012-09-15T13:56:55Z</time>
      </trkpt>
      <trkpt lat="44.05405" lon="1.6655">
        <ele>134</ele>
        <time>2012-09-15T13:56:55Z</time>
      </trkpt>
      <trkpt lat="44.05402" lon="1.66709">
        <ele>129</ele>
        <time>2012-09-15T13:56:55Z</time>
      </trkpt>
      <trkpt lat="44.05541" lon="1.66939">
        <ele>101</ele>
        <time>2012-09-15T13:56:55Z</time>
      </trkpt>
      <trkpt lat="44.05573" lon="1.67031">
        <ele>101</ele>
        <time>2012-09-15T13:56:55Z</time>
      </trkpt>
      <trkpt lat="44.05603" lon="1.67045">
        <ele>100</ele>
        <time>2012-09-15T13:56:55Z</time>
      </trkpt>
      <trkpt lat="44.05558" lon="1.67103">
        <ele>109</ele>
        <time>2012-09-15T13:56:55Z</time>
      </trkpt>
      <trkpt lat="44.05635" lon="1.67085">
        <ele>102</ele>
        <time>2012-09-15T13:56:55Z</time>
      </trkpt>
      <trkpt lat="44.05634" lon="1.66966">
        <ele>97</ele>
        <time>2012-09-15T13:56:55Z</time>
      </trkpt>
      <trkpt lat="44.05748" lon="1.66948">
        <ele>108</ele>
        <time>2012-09-15T13:56:55Z</time>
      </trkpt>
      <trkpt lat="44.05865" lon="1.67138">
        <ele>108</ele>
        <time>2012-09-15T13:56:55Z</time>
      </trkpt>
      <trkpt lat="44.06009" lon="1.67227">
        <ele>110</ele>
        <time>2012-09-15T13:56:55Z</time>
      </trkpt>
      <trkpt lat="44.06155" lon="1.67261">
        <ele>106</ele>
        <time>2012-09-15T13:56:55Z</time>
      </trkpt>
      <trkpt lat="44.06407" lon="1.67267">
        <ele>106</ele>
        <time>2012-09-15T13:56:55Z</time>
      </trkpt>
      <trkpt lat="44.06542" lon="1.67314">
        <ele>109</ele>
        <time>2012-09-15T13:56:55Z</time>
      </trkpt>
      <trkpt lat="44.06683" lon="1.67386">
        <ele>104</ele>
        <time>2012-09-15T13:56:55Z</time>
      </trkpt>
      <trkpt lat="44.06735" lon="1.67563">
        <ele>105</ele>
        <time>2012-09-15T13:56:55Z</time>
      </trkpt>
      <trkpt lat="44.06732" lon="1.67666">
        <ele>110</ele>
        <time>2012-09-15T13:56:55Z</time>
      </trkpt>
      <trkpt lat="44.06695" lon="1.67789">
        <ele>107</ele>
        <time>2012-09-15T13:56:55Z</time>
      </trkpt>
      <trkpt lat="44.06753" lon="1.67905">
        <ele>126</ele>
        <time>2012-09-15T13:56:55Z</time>
      </trkpt>
      <trkpt lat="44.06787" lon="1.67941">
        <ele>134</ele>
        <time>2012-09-15T13:56:55Z</time>
      </trkpt>
      <trkpt lat="44.06859" lon="1.67931">
        <ele>144</ele>
        <time>2012-09-15T13:56:55Z</time>
      </trkpt>
      <trkpt lat="44.07021" lon="1.68005">
        <ele>163</ele>
        <time>2012-09-15T13:56:55Z</time>
      </trkpt>
      <trkpt lat="44.07144" lon="1.68102">
        <ele>183</ele>
        <time>2012-09-15T13:56:55Z</time>
      </trkpt>
      <trkpt lat="44.07395" lon="1.6835">
        <ele>221</ele>
        <time>2012-09-15T13:56:55Z</time>
      </trkpt>
      <trkpt lat="44.07532" lon="1.68532">
        <ele>240</ele>
        <time>2012-09-15T13:56:55Z</time>
      </trkpt>
      <trkpt lat="44.076" lon="1.68686">
        <ele>247</ele>
        <time>2012-09-15T13:56:55Z</time>
      </trkpt>
      <trkpt lat="44.07618" lon="1.68583">
        <ele>247</ele>
        <time>2012-09-15T13:56:55Z</time>
      </trkpt>
      <trkpt lat="44.077" lon="1.68524">
        <ele>252</ele>
        <time>2012-09-15T13:56:55Z</time>
      </trkpt>
      <trkpt lat="44.07777" lon="1.68598">
        <ele>261</ele>
        <time>2012-09-15T13:56:55Z</time>
      </trkpt>
      <trkpt lat="44.07855" lon="1.68641">
        <ele>264</ele>
        <time>2012-09-15T13:56:55Z</time>
      </trkpt>
      <trkpt lat="44.08046" lon="1.68789">
        <ele>268</ele>
        <time>2012-09-15T13:56:55Z</time>
      </trkpt>
      <trkpt lat="44.08143" lon="1.68814">
        <ele>267</ele>
        <time>2012-09-15T13:56:55Z</time>
      </trkpt>
      <trkpt lat="44.0819" lon="1.68489">
        <ele>264</ele>
        <time>2012-09-15T13:56:55Z</time>
      </trkpt>
      <trkpt lat="44.0827" lon="1.68251">
        <ele>252</ele>
        <time>2012-09-15T13:56:55Z</time>
      </trkpt>
      <trkpt lat="44.08261" lon="1.68094">
        <ele>250</ele>
        <time>2012-09-15T13:56:55Z</time>
      </trkpt>
      <trkpt lat="44.08338" lon="1.68018">
        <ele>250</ele>
        <time>2012-09-15T13:56:55Z</time>
      </trkpt>
      <trkpt lat="44.08432" lon="1.68072">
        <ele>250</ele>
        <time>2012-09-15T13:56:55Z</time>
      </trkpt>
      <trkpt lat="44.08448" lon="1.68118">
        <ele>251</ele>
        <time>2012-09-15T13:56:55Z</time>
      </trkpt>
      <trkpt lat="44.0863" lon="1.6822">
        <ele>252</ele>
        <time>2012-09-15T13:56:55Z</time>
      </trkpt>
      <trkpt lat="44.08826" lon="1.68212">
        <ele>250</ele>
        <time>2012-09-15T13:56:55Z</time>
      </trkpt>
      <trkpt lat="44.09032" lon="1.68172">
        <ele>241</ele>
        <time>2012-09-15T13:56:55Z</time>
      </trkpt>
      <trkpt lat="44.09075" lon="1.68232">
        <ele>241</ele>
        <time>2012-09-15T13:56:55Z</time>
      </trkpt>
      <trkpt lat="44.09143" lon="1.68283">
        <ele>241</ele>
        <time>2012-09-15T13:56:55Z</time>
      </trkpt>
      <trkpt lat="44.09389" lon="1.68293">
        <ele>257</ele>
        <time>2012-09-15T13:56:55Z</time>
      </trkpt>
      <trkpt lat="44.09564" lon="1.68328">
        <ele>261</ele>
        <time>2012-09-15T13:56:55Z</time>
      </trkpt>
      <trkpt lat="44.09889" lon="1.68574">
        <ele>255</ele>
        <time>2012-09-15T13:56:55Z</time>
      </trkpt>
      <trkpt lat="44.10057" lon="1.68734">
        <ele>260</ele>
        <time>2012-09-15T13:56:55Z</time>
      </trkpt>
      <trkpt lat="44.10161" lon="1.68586">
        <ele>264</ele>
        <time>2012-09-15T13:56:55Z</time>
      </trkpt>
      <trkpt lat="44.10189" lon="1.68756">
        <ele>273</ele>
        <time>2012-09-15T13:56:55Z</time>
      </trkpt>
      <trkpt lat="44.10224" lon="1.68856">
        <ele>278</ele>
        <time>2012-09-15T13:56:55Z</time>
      </trkpt>
      <trkpt lat="44.10373" lon="1.69121">
        <ele>290</ele>
        <time>2012-09-15T13:56:55Z</time>
      </trkpt>
      <trkpt lat="44.10522" lon="1.69437">
        <ele>301</ele>
        <time>2012-09-15T13:56:55Z</time>
      </trkpt>
      <trkpt lat="44.10639" lon="1.69523">
        <ele>294</ele>
        <time>2012-09-15T13:56:55Z</time>
      </trkpt>
      <trkpt lat="44.10691" lon="1.69615">
        <ele>294</ele>
        <time>2012-09-15T13:56:55Z</time>
      </trkpt>
      <trkpt lat="44.10782" lon="1.69709">
        <ele>292</ele>
        <time>2012-09-15T13:56:55Z</time>
      </trkpt>
      <trkpt lat="44.10868" lon="1.69815">
        <ele>288</ele>
        <time>2012-09-15T13:56:55Z</time>
      </trkpt>
      <trkpt lat="44.11124" lon="1.69926">
        <ele>290</ele>
        <time>2012-09-15T13:56:55Z</time>
      </trkpt>
      <trkpt lat="44.11307" lon="1.70024">
        <ele>297</ele>
        <time>2012-09-15T13:56:55Z</time>
      </trkpt>
      <trkpt lat="44.11469" lon="1.69994">
        <ele>298</ele>
        <time>2012-09-15T13:56:55Z</time>
      </trkpt>
      <trkpt lat="44.11604" lon="1.70043">
        <ele>306</ele>
        <time>2012-09-15T13:56:55Z</time>
      </trkpt>
      <trkpt lat="44.11993" lon="1.69937">
        <ele>311</ele>
        <time>2012-09-15T13:56:55Z</time>
      </trkpt>
      <trkpt lat="44.12156" lon="1.69966">
        <ele>303</ele>
        <time>2012-09-15T13:56:55Z</time>
      </trkpt>
      <trkpt lat="44.12206" lon="1.69995">
        <ele>302</ele>
        <time>2012-09-15T13:56:55Z</time>
      </trkpt>
      <trkpt lat="44.12329" lon="1.70226">
        <ele>291</ele>
        <time>2012-09-15T13:56:55Z</time>
      </trkpt>
      <trkpt lat="44.12345" lon="1.70331">
        <ele>279</ele>
        <time>2012-09-15T13:56:55Z</time>
      </trkpt>
      <trkpt lat="44.12418" lon="1.70413">
        <ele>276</ele>
        <time>2012-09-15T13:56:55Z</time>
      </trkpt>
      <trkpt lat="44.12393" lon="1.70517">
        <ele>253</ele>
        <time>2012-09-15T13:56:55Z</time>
      </trkpt>
      <trkpt lat="44.12377" lon="1.70468">
        <ele>253</ele>
        <time>2012-09-15T13:56:55Z</time>
      </trkpt>
      <trkpt lat="44.12353" lon="1.70594">
        <ele>223</ele>
        <time>2012-09-15T13:56:55Z</time>
      </trkpt>
      <trkpt lat="44.124" lon="1.70678">
        <ele>216</ele>
        <time>2012-09-15T13:56:55Z</time>
      </trkpt>
      <trkpt lat="44.12456" lon="1.70698">
        <ele>214</ele>
        <time>2012-09-15T13:56:55Z</time>
      </trkpt>
      <trkpt lat="44.12541" lon="1.7087">
        <ele>185</ele>
        <time>2012-09-15T13:56:55Z</time>
      </trkpt>
      <trkpt lat="44.12576" lon="1.71179">
        <ele>161</ele>
        <time>2012-09-15T13:56:55Z</time>
      </trkpt>
      <trkpt lat="44.12631" lon="1.71108">
        <ele>166</ele>
        <time>2012-09-15T13:56:55Z</time>
      </trkpt>
      <trkpt lat="44.12687" lon="1.7091">
        <ele>191</ele>
        <time>2012-09-15T13:56:55Z</time>
      </trkpt>
      <trkpt lat="44.1274" lon="1.70891">
        <ele>177</ele>
        <time>2012-09-15T13:56:55Z</time>
      </trkpt>
      <trkpt lat="44.12823" lon="1.70932">
        <ele>146</ele>
        <time>2012-09-15T13:56:55Z</time>
      </trkpt>
      <trkpt lat="44.12888" lon="1.70794">
        <ele>140</ele>
        <time>2012-09-15T13:56:55Z</time>
      </trkpt>
      <trkpt lat="44.12913" lon="1.70688">
        <ele>148</ele>
        <time>2012-09-15T13:56:55Z</time>
      </trkpt>
      <trkpt lat="44.12958" lon="1.70639">
        <ele>135</ele>
        <time>2012-09-15T13:56:55Z</time>
      </trkpt>
      <trkpt lat="44.13284" lon="1.70428">
        <ele>137</ele>
        <time>2012-09-15T13:56:55Z</time>
      </trkpt>
      <trkpt lat="44.1336" lon="1.7043">
        <ele>131</ele>
        <time>2012-09-15T13:56:55Z</time>
      </trkpt>
      <trkpt lat="44.13442" lon="1.70507">
        <ele>128</ele>
        <time>2012-09-15T13:56:55Z</time>
      </trkpt>
      <trkpt lat="44.13466" lon="1.70576">
        <ele>123</ele>
        <time>2012-09-15T13:56:55Z</time>
      </trkpt>
      <trkpt lat="44.13477" lon="1.70746">
        <ele>126</ele>
        <time>2012-09-15T13:56:55Z</time>
      </trkpt>
      <trkpt lat="44.13426" lon="1.70877">
        <ele>125</ele>
        <time>2012-09-15T13:56:55Z</time>
      </trkpt>
      <trkpt lat="44.13499" lon="1.71028">
        <ele>140</ele>
        <time>2012-09-15T13:56:55Z</time>
      </trkpt>
      <trkpt lat="44.13584" lon="1.7103">
        <ele>156</ele>
        <time>2012-09-15T13:56:55Z</time>
      </trkpt>
      <trkpt lat="44.13579" lon="1.71103">
        <ele>157</ele>
        <time>2012-09-15T13:56:55Z</time>
      </trkpt>
      <trkpt lat="44.13635" lon="1.71209">
        <ele>168</ele>
        <time>2012-09-15T13:56:55Z</time>
      </trkpt>
      <trkpt lat="44.13697" lon="1.71268">
        <ele>178</ele>
        <time>2012-09-15T13:56:55Z</time>
      </trkpt>
      <trkpt lat="44.13861" lon="1.71313">
        <ele>207</ele>
        <time>2012-09-15T13:56:55Z</time>
      </trkpt>
      <trkpt lat="44.13831" lon="1.71232">
        <ele>212</ele>
        <time>2012-09-15T13:56:55Z</time>
      </trkpt>
      <trkpt lat="44.13831" lon="1.71163">
        <ele>220</ele>
        <time>2012-09-15T13:56:55Z</time>
      </trkpt>
      <trkpt lat="44.13792" lon="1.71081">
        <ele>222</ele>
        <time>2012-09-15T13:56:55Z</time>
      </trkpt>
      <trkpt lat="44.13863" lon="1.71111">
        <ele>238</ele>
        <time>2012-09-15T13:56:55Z</time>
      </trkpt>
      <trkpt lat="44.13908" lon="1.71173">
        <ele>243</ele>
        <time>2012-09-15T13:56:55Z</time>
      </trkpt>
      <trkpt lat="44.13884" lon="1.71005">
        <ele>257</ele>
        <time>2012-09-15T13:56:55Z</time>
      </trkpt>
      <trkpt lat="44.13898" lon="1.70958">
        <ele>259</ele>
        <time>2012-09-15T13:56:55Z</time>
      </trkpt>
      <trkpt lat="44.13969" lon="1.70871">
        <ele>271</ele>
        <time>2012-09-15T13:56:55Z</time>
      </trkpt>
      <trkpt lat="44.14073" lon="1.70683">
        <ele>289</ele>
        <time>2012-09-15T13:56:55Z</time>
      </trkpt>
      <trkpt lat="44.14434" lon="1.70334">
        <ele>301</ele>
        <time>2012-09-15T13:56:55Z</time>
      </trkpt>
      <trkpt lat="44.14739" lon="1.70212">
        <ele>287</ele>
        <time>2012-09-15T13:56:55Z</time>
      </trkpt>
      <trkpt lat="44.14808" lon="1.70264">
        <ele>285</ele>
        <time>2012-09-15T13:56:55Z</time>
      </trkpt>
      <trkpt lat="44.14847" lon="1.70362">
        <ele>292</ele>
        <time>2012-09-15T13:56:55Z</time>
      </trkpt>
      <trkpt lat="44.1499" lon="1.7057">
        <ele>309</ele>
        <time>2012-09-15T13:56:55Z</time>
      </trkpt>
      <trkpt lat="44.14985" lon="1.70723">
        <ele>313</ele>
        <time>2012-09-15T13:56:55Z</time>
      </trkpt>
      <trkpt lat="44.14842" lon="1.70986">
        <ele>304</ele>
        <time>2012-09-15T13:56:55Z</time>
      </trkpt>
      <trkpt lat="44.14823" lon="1.71065">
        <ele>299</ele>
        <time>2012-09-15T13:56:55Z</time>
      </trkpt>
      <trkpt lat="44.14898" lon="1.71183">
        <ele>304</ele>
        <time>2012-09-15T13:56:55Z</time>
      </trkpt>
      <trkpt lat="44.15055" lon="1.71232">
        <ele>312</ele>
        <time>2012-09-15T13:56:55Z</time>
      </trkpt>
      <trkpt lat="44.15152" lon="1.71454">
        <ele>299</ele>
        <time>2012-09-15T13:56:55Z</time>
      </trkpt>
      <trkpt lat="44.15176" lon="1.71529">
        <ele>290</ele>
        <time>2012-09-15T13:56:55Z</time>
      </trkpt>
      <trkpt lat="44.1522" lon="1.71504">
        <ele>292</ele>
        <time>2012-09-15T13:56:55Z</time>
      </trkpt>
      <trkpt lat="44.15268" lon="1.71516">
        <ele>290</ele>
        <time>2012-09-15T13:56:55Z</time>
      </trkpt>
      <trkpt lat="44.15607" lon="1.71702">
        <ele>288</ele>
        <time>2012-09-15T13:56:55Z</time>
      </trkpt>
      <trkpt lat="44.15652" lon="1.71742">
        <ele>289</ele>
        <time>2012-09-15T13:56:55Z</time>
      </trkpt>
      <trkpt lat="44.1569" lon="1.71978">
        <ele>278</ele>
        <time>2012-09-15T13:56:55Z</time>
      </trkpt>
      <trkpt lat="44.15602" lon="1.71844">
        <ele>263</ele>
        <time>2012-09-15T13:56:55Z</time>
      </trkpt>
      <trkpt lat="44.15628" lon="1.71941">
        <ele>255</ele>
        <time>2012-09-15T13:56:55Z</time>
      </trkpt>
      <trkpt lat="44.15549" lon="1.71845">
        <ele>243</ele>
        <time>2012-09-15T13:56:55Z</time>
      </trkpt>
      <trkpt lat="44.15565" lon="1.71898">
        <ele>235</ele>
        <time>2012-09-15T13:56:55Z</time>
      </trkpt>
      <trkpt lat="44.1541" lon="1.71762">
        <ele>219</ele>
        <time>2012-09-15T13:56:55Z</time>
      </trkpt>
      <trkpt lat="44.1537" lon="1.71755">
        <ele>207</ele>
        <time>2012-09-15T13:56:55Z</time>
      </trkpt>
      <trkpt lat="44.15504" lon="1.71914">
        <ele>204</ele>
        <time>2012-09-15T13:56:55Z</time>
      </trkpt>
      <trkpt lat="44.15539" lon="1.7199">
        <ele>204</ele>
        <time>2012-09-15T13:56:55Z</time>
      </trkpt>
      <trkpt lat="44.15558" lon="1.72237">
        <ele>188</ele>
        <time>2012-09-15T13:56:55Z</time>
      </trkpt>
      <trkpt lat="44.15547" lon="1.72251">
        <ele>183</ele>
        <time>2012-09-15T13:56:55Z</time>
      </trkpt>
      <trkpt lat="44.15489" lon="1.72189">
        <ele>163</ele>
        <time>2012-09-15T13:56:55Z</time>
      </trkpt>
      <trkpt lat="44.15403" lon="1.7204">
        <ele>130</ele>
        <time>2012-09-15T13:56:55Z</time>
      </trkpt>
      <trkpt lat="44.15398" lon="1.72195">
        <ele>125</ele>
        <time>2012-09-15T13:56:55Z</time>
      </trkpt>
      <trkpt lat="44.15337" lon="1.72492">
        <ele>123</ele>
        <time>2012-09-15T13:56:55Z</time>
      </trkpt>
      <trkpt lat="44.15214" lon="1.72717">
        <ele>123</ele>
        <time>2012-09-15T13:56:55Z</time>
      </trkpt>
      <trkpt lat="44.14993" lon="1.7303">
        <ele>123</ele>
        <time>2012-09-15T13:56:55Z</time>
      </trkpt>
      <trkpt lat="44.14896" lon="1.73232">
        <ele>131</ele>
        <time>2012-09-15T13:56:55Z</time>
      </trkpt>
      <trkpt lat="44.14877" lon="1.73313">
        <ele>138</ele>
        <time>2012-09-15T13:56:55Z</time>
      </trkpt>
      <trkpt lat="44.14935" lon="1.73623">
        <ele>143</ele>
        <time>2012-09-15T13:56:55Z</time>
      </trkpt>
      <trkpt lat="44.15034" lon="1.73996">
        <ele>140</ele>
        <time>2012-09-15T13:56:55Z</time>
      </trkpt>
      <trkpt lat="44.15046" lon="1.74105">
        <ele>133</ele>
        <time>2012-09-15T13:56:55Z</time>
      </trkpt>
      <trkpt lat="44.1517" lon="1.74598">
        <ele>137</ele>
        <time>2012-09-15T13:56:55Z</time>
      </trkpt>
      <trkpt lat="44.15277" lon="1.74953">
        <ele>131</ele>
        <time>2012-09-15T13:56:55Z</time>
      </trkpt>
      <trkpt lat="44.15286" lon="1.75061">
        <ele>128</ele>
        <time>2012-09-15T13:56:55Z</time>
      </trkpt>
      <trkpt lat="44.15264" lon="1.75155">
        <ele>128</ele>
        <time>2012-09-15T13:56:55Z</time>
      </trkpt>
      <trkpt lat="44.1525" lon="1.75317">
        <ele>128</ele>
        <time>2012-09-15T13:56:55Z</time>
      </trkpt>
      <trkpt lat="44.1517" lon="1.75315">
        <ele>127</ele>
        <time>2012-09-15T13:56:55Z</time>
      </trkpt>
      <trkpt lat="44.15117" lon="1.75339">
        <ele>126</ele>
        <time>2012-09-15T13:56:55Z</time>
      </trkpt>
      <trkpt lat="44.1499" lon="1.7564">
        <ele>122</ele>
        <time>2012-09-15T13:56:55Z</time>
      </trkpt>
      <trkpt lat="44.14989" lon="1.75677">
        <ele>125</ele>
        <time>2012-09-15T13:56:55Z</time>
      </trkpt>
      <trkpt lat="44.15008" lon="1.75708">
        <ele>130</ele>
        <time>2012-09-15T13:56:55Z</time>
      </trkpt>
      <trkpt lat="44.15123" lon="1.75663">
        <ele>137</ele>
        <time>2012-09-15T13:56:55Z</time>
      </trkpt>
      <trkpt lat="44.15174" lon="1.75667">
        <ele>137</ele>
        <time>2012-09-15T13:56:55Z</time>
      </trkpt>
      <trkpt lat="44.15288" lon="1.75925">
        <ele>159</ele>
        <time>2012-09-15T13:56:55Z</time>
      </trkpt>
      <trkpt lat="44.15422" lon="1.7609">
        <ele>181</ele>
        <time>2012-09-15T13:56:55Z</time>
      </trkpt>
      <trkpt lat="44.15661" lon="1.76523">
        <ele>232</ele>
        <time>2012-09-15T13:56:55Z</time>
      </trkpt>
      <trkpt lat="44.15713" lon="1.7658">
        <ele>235</ele>
        <time>2012-09-15T13:56:55Z</time>
      </trkpt>
      <trkpt lat="44.15738" lon="1.76814">
        <ele>275</ele>
        <time>2012-09-15T13:56:55Z</time>
      </trkpt>
      <trkpt lat="44.15757" lon="1.76834">
        <ele>279</ele>
        <time>2012-09-15T13:56:55Z</time>
      </trkpt>
      <trkpt lat="44.15945" lon="1.76715">
        <ele>293</ele>
        <time>2012-09-15T13:56:55Z</time>
      </trkpt>
      <trkpt lat="44.1599" lon="1.76724">
        <ele>299</ele>
        <time>2012-09-15T13:56:55Z</time>
      </trkpt>
      <trkpt lat="44.16007" lon="1.7676">
        <ele>307</ele>
        <time>2012-09-15T13:56:55Z</time>
      </trkpt>
      <trkpt lat="44.16038" lon="1.77001">
        <ele>325</ele>
        <time>2012-09-15T13:56:55Z</time>
      </trkpt>
      <trkpt lat="44.16177" lon="1.7713">
        <ele>329</ele>
        <time>2012-09-15T13:56:55Z</time>
      </trkpt>
      <trkpt lat="44.16295" lon="1.77142">
        <ele>330</ele>
        <time>2012-09-15T13:56:55Z</time>
      </trkpt>
      <trkpt lat="44.16378" lon="1.77068">
        <ele>327</ele>
        <time>2012-09-15T13:56:55Z</time>
      </trkpt>
      <trkpt lat="44.16503" lon="1.77026">
        <ele>313</ele>
        <time>2012-09-15T13:56:55Z</time>
      </trkpt>
      <trkpt lat="44.16567" lon="1.76977">
        <ele>317</ele>
        <time>2012-09-15T13:56:55Z</time>
      </trkpt>
      <trkpt lat="44.16617" lon="1.76892">
        <ele>322</ele>
        <time>2012-09-15T13:56:55Z</time>
      </trkpt>
      <trkpt lat="44.16631" lon="1.76819">
        <ele>326</ele>
        <time>2012-09-15T13:56:55Z</time>
      </trkpt>
      <trkpt lat="44.16621" lon="1.7668">
        <ele>320</ele>
        <time>2012-09-15T13:56:55Z</time>
      </trkpt>
      <trkpt lat="44.16488" lon="1.7614">
        <ele>292</ele>
        <time>2012-09-15T13:56:55Z</time>
      </trkpt>
      <trkpt lat="44.16478" lon="1.76066">
        <ele>289</ele>
        <time>2012-09-15T13:56:55Z</time>
      </trkpt>
      <trkpt lat="44.16498" lon="1.75951">
        <ele>299</ele>
        <time>2012-09-15T13:56:55Z</time>
      </trkpt>
      <trkpt lat="44.16488" lon="1.75832">
        <ele>297</ele>
        <time>2012-09-15T13:56:55Z</time>
      </trkpt>
      <trkpt lat="44.1658" lon="1.75691">
        <ele>301</ele>
        <time>2012-09-15T13:56:55Z</time>
      </trkpt>
      <trkpt lat="44.16725" lon="1.75603">
        <ele>297</ele>
        <time>2012-09-15T13:56:55Z</time>
      </trkpt>
      <trkpt lat="44.168" lon="1.75515">
        <ele>288</ele>
        <time>2012-09-15T13:56:55Z</time>
      </trkpt>
      <trkpt lat="44.16807" lon="1.7547">
        <ele>282</ele>
        <time>2012-09-15T13:56:55Z</time>
      </trkpt>
      <trkpt lat="44.16757" lon="1.7547">
        <ele>277</ele>
        <time>2012-09-15T13:56:55Z</time>
      </trkpt>
      <trkpt lat="44.16707" lon="1.75505">
        <ele>276</ele>
        <time>2012-09-15T13:56:55Z</time>
      </trkpt>
      <trkpt lat="44.16716" lon="1.75458">
        <ele>263</ele>
        <time>2012-09-15T13:56:55Z</time>
      </trkpt>
      <trkpt lat="44.16639" lon="1.75507">
        <ele>253</ele>
        <time>2012-09-15T13:56:55Z</time>
      </trkpt>
      <trkpt lat="44.16566" lon="1.75516">
        <ele>230</ele>
        <time>2012-09-15T13:56:55Z</time>
      </trkpt>
      <trkpt lat="44.16635" lon="1.7541">
        <ele>201</ele>
        <time>2012-09-15T13:56:55Z</time>
      </trkpt>
      <trkpt lat="44.16655" lon="1.75346">
        <ele>182</ele>
        <time>2012-09-15T13:56:55Z</time>
      </trkpt>
      <trkpt lat="44.16653" lon="1.75287">
        <ele>169</ele>
        <time>2012-09-15T13:56:55Z</time>
      </trkpt>
      <trkpt lat="44.16737" lon="1.75186">
        <ele>160</ele>
        <time>2012-09-15T13:56:55Z</time>
      </trkpt>
      <trkpt lat="44.16775" lon="1.75101">
        <ele>149</ele>
        <time>2012-09-15T13:56:55Z</time>
      </trkpt>
      <trkpt lat="44.16899" lon="1.7507">
        <ele>157</ele>
        <time>2012-09-15T13:56:55Z</time>
      </trkpt>
      <trkpt lat="44.17026" lon="1.751">
        <ele>162</ele>
        <time>2012-09-15T13:56:55Z</time>
      </trkpt>
      <trkpt lat="44.17279" lon="1.75104">
        <ele>161</ele>
        <time>2012-09-15T13:56:55Z</time>
      </trkpt>
      <trkpt lat="44.17426" lon="1.75167">
        <ele>167</ele>
        <time>2012-09-15T13:56:55Z</time>
      </trkpt>
      <trkpt lat="44.1769" lon="1.7522">
        <ele>166</ele>
        <time>2012-09-15T13:56:55Z</time>
      </trkpt>
      <trkpt lat="44.17983" lon="1.7559">
        <ele>159</ele>
        <time>2012-09-15T13:56:55Z</time>
      </trkpt>
      <trkpt lat="44.18008" lon="1.75549">
        <ele>157</ele>
        <time>2012-09-15T13:56:55Z</time>
      </trkpt>
      <trkpt lat="44.18015" lon="1.75412">
        <ele>155</ele>
        <time>2012-09-15T13:56:55Z</time>
      </trkpt>
      <trkpt lat="44.17913" lon="1.75107">
        <ele>155</ele>
        <time>2012-09-15T13:56:55Z</time>
      </trkpt>
      <trkpt lat="44.17786" lon="1.75058">
        <ele>152</ele>
        <time>2012-09-15T13:56:55Z</time>
      </trkpt>
      <trkpt lat="44.17731" lon="1.75017">
        <ele>150</ele>
        <time>2012-09-15T13:56:55Z</time>
      </trkpt>
      <trkpt lat="44.17819" lon="1.74911">
        <ele>157</ele>
        <time>2012-09-15T13:56:55Z</time>
      </trkpt>
      <trkpt lat="44.1797" lon="1.7467">
        <ele>168</ele>
        <time>2012-09-15T13:56:55Z</time>
      </trkpt>
      <trkpt lat="44.18118" lon="1.74539">
        <ele>177</ele>
        <time>2012-09-15T13:56:55Z</time>
      </trkpt>
      <trkpt lat="44.18185" lon="1.74417">
        <ele>178</ele>
        <time>2012-09-15T13:56:55Z</time>
      </trkpt>
      <trkpt lat="44.18248" lon="1.74197">
        <ele>170</ele>
        <time>2012-09-15T13:56:55Z</time>
      </trkpt>
      <trkpt lat="44.18283" lon="1.74142">
        <ele>172</ele>
        <time>2012-09-15T13:56:55Z</time>
      </trkpt>
      <trkpt lat="44.18288" lon="1.74088">
        <ele>172</ele>
        <time>2012-09-15T13:56:55Z</time>
      </trkpt>
      <trkpt lat="44.18408" lon="1.74032">
        <ele>177</ele>
        <time>2012-09-15T13:56:55Z</time>
      </trkpt>
      <trkpt lat="44.18623" lon="1.74036">
        <ele>177</ele>
        <time>2012-09-15T13:56:55Z</time>
      </trkpt>
      <trkpt lat="44.1878" lon="1.73976">
        <ele>178</ele>
        <time>2012-09-15T13:56:55Z</time>
      </trkpt>
      <trkpt lat="44.18855" lon="1.73883">
        <ele>179</ele>
        <time>2012-09-15T13:56:55Z</time>
      </trkpt>
      <trkpt lat="44.18894" lon="1.73869">
        <ele>178</ele>
        <time>2012-09-15T13:56:55Z</time>
      </trkpt>
      <trkpt lat="44.19057" lon="1.73945">
        <ele>178</ele>
        <time>2012-09-15T13:56:55Z</time>
      </trkpt>
      <trkpt lat="44.19166" lon="1.7391">
        <ele>177</ele>
        <time>2012-09-15T13:56:55Z</time>
      </trkpt>
      <trkpt lat="44.19241" lon="1.73925">
        <ele>194</ele>
        <time>2012-09-15T13:56:55Z</time>
      </trkpt>
      <trkpt lat="44.19284" lon="1.7406">
        <ele>187</ele>
        <time>2012-09-15T13:56:55Z</time>
      </trkpt>
      <trkpt lat="44.19299" lon="1.74218">
        <ele>198</ele>
        <time>2012-09-15T13:56:55Z</time>
      </trkpt>
      <trkpt lat="44.19327" lon="1.74228">
        <ele>195</ele>
        <time>2012-09-15T13:56:55Z</time>
      </trkpt>
      <trkpt lat="44.196" lon="1.74069">
        <ele>200</ele>
        <time>2012-09-15T13:56:55Z</time>
      </trkpt>
      <trkpt lat="44.19685" lon="1.73875">
        <ele>198</ele>
        <time>2012-09-15T13:56:55Z</time>
      </trkpt>
      <trkpt lat="44.19672" lon="1.73767">
        <ele>204</ele>
        <time>2012-09-15T13:56:55Z</time>
      </trkpt>
      <trkpt lat="44.19685" lon="1.73579">
        <ele>207</ele>
        <time>2012-09-15T13:56:55Z</time>
      </trkpt>
      <trkpt lat="44.197" lon="1.73481">
        <ele>214</ele>
        <time>2012-09-15T13:56:55Z</time>
      </trkpt>
      <trkpt lat="44.19736" lon="1.73419">
        <ele>219</ele>
        <time>2012-09-15T13:56:55Z</time>
      </trkpt>
      <trkpt lat="44.19625" lon="1.7328">
        <ele>219</ele>
        <time>2012-09-15T13:56:55Z</time>
      </trkpt>
      <trkpt lat="44.19582" lon="1.73149">
        <ele>217</ele>
        <time>2012-09-15T13:56:55Z</time>
      </trkpt>
      <trkpt lat="44.19622" lon="1.72988">
        <ele>220</ele>
        <time>2012-09-15T13:56:55Z</time>
      </trkpt>
      <trkpt lat="44.19612" lon="1.72855">
        <ele>223</ele>
        <time>2012-09-15T13:56:55Z</time>
      </trkpt>
      <trkpt lat="44.19581" lon="1.72671">
        <ele>214</ele>
        <time>2012-09-15T13:56:55Z</time>
      </trkpt>
      <trkpt lat="44.19423" lon="1.72521">
        <ele>225</ele>
        <time>2012-09-15T13:56:55Z</time>
      </trkpt>
      <trkpt lat="44.19398" lon="1.723">
        <ele>228</ele>
        <time>2012-09-15T13:56:55Z</time>
      </trkpt>
      <trkpt lat="44.19398" lon="1.71555">
        <ele>268</ele>
        <time>2012-09-15T13:56:55Z</time>
      </trkpt>
      <trkpt lat="44.19383" lon="1.71436">
        <ele>276</ele>
        <time>2012-09-15T13:56:55Z</time>
      </trkpt>
      <trkpt lat="44.19368" lon="1.71397">
        <ele>275</ele>
        <time>2012-09-15T13:56:55Z</time>
      </trkpt>
      <trkpt lat="44.19336" lon="1.71376">
        <ele>274</ele>
        <time>2012-09-15T13:56:55Z</time>
      </trkpt>
      <trkpt lat="44.19315" lon="1.7157">
        <ele>273</ele>
        <time>2012-09-15T13:56:55Z</time>
      </trkpt>
      <trkpt lat="44.19142" lon="1.71823">
        <ele>295</ele>
        <time>2012-09-15T13:56:55Z</time>
      </trkpt>
      <trkpt lat="44.19159" lon="1.71941">
        <ele>295</ele>
        <time>2012-09-15T13:56:55Z</time>
      </trkpt>
      <trkpt lat="44.1915" lon="1.72135">
        <ele>297</ele>
        <time>2012-09-15T13:56:55Z</time>
      </trkpt>
      <trkpt lat="44.19112" lon="1.72265">
        <ele>298</ele>
        <time>2012-09-15T13:56:55Z</time>
      </trkpt>
      <trkpt lat="44.18939" lon="1.72495">
        <ele>307</ele>
        <time>2012-09-15T13:56:55Z</time>
      </trkpt>
      <trkpt lat="44.18893" lon="1.72677">
        <ele>308</ele>
        <time>2012-09-15T13:56:55Z</time>
      </trkpt>
      <trkpt lat="44.18852" lon="1.72713">
        <ele>311</ele>
        <time>2012-09-15T13:56:55Z</time>
      </trkpt>
      <trkpt lat="44.18784" lon="1.72725">
        <ele>314</ele>
        <time>2012-09-15T13:56:55Z</time>
      </trkpt>
      <trkpt lat="44.18731" lon="1.72688">
        <ele>314</ele>
        <time>2012-09-15T13:56:55Z</time>
      </trkpt>
      <trkpt lat="44.18605" lon="1.72713">
        <ele>308</ele>
        <time>2012-09-15T13:56:55Z</time>
      </trkpt>
      <trkpt lat="44.18564" lon="1.72699">
        <ele>307</ele>
        <time>2012-09-15T13:56:55Z</time>
      </trkpt>
      <trkpt lat="44.18252" lon="1.72507">
        <ele>300</ele>
        <time>2012-09-15T13:56:55Z</time>
      </trkpt>
      <trkpt lat="44.18153" lon="1.72558">
        <ele>301</ele>
        <time>2012-09-15T13:56:55Z</time>
      </trkpt>
      <trkpt lat="44.17858" lon="1.72899">
        <ele>299</ele>
        <time>2012-09-15T13:56:55Z</time>
      </trkpt>
      <trkpt lat="44.17634" lon="1.73203">
        <ele>302</ele>
        <time>2012-09-15T13:56:55Z</time>
      </trkpt>
      <trkpt lat="44.17597" lon="1.73206">
        <ele>302</ele>
        <time>2012-09-15T13:56:55Z</time>
      </trkpt>
      <trkpt lat="44.17509" lon="1.73342">
        <ele>305</ele>
        <time>2012-09-15T13:56:55Z</time>
      </trkpt>
      <trkpt lat="44.17439" lon="1.73506">
        <ele>304</ele>
        <time>2012-09-15T13:56:55Z</time>
      </trkpt>
      <trkpt lat="44.17329" lon="1.73611">
        <ele>304</ele>
        <time>2012-09-15T13:56:55Z</time>
      </trkpt>
      <trkpt lat="44.17247" lon="1.73643">
        <ele>305</ele>
        <time>2012-09-15T13:56:55Z</time>
      </trkpt>
      <trkpt lat="44.17131" lon="1.73811">
        <ele>299</ele>
        <time>2012-09-15T13:56:55Z</time>
      </trkpt>
      <trkpt lat="44.17059" lon="1.73813">
        <ele>295</ele>
        <time>2012-09-15T13:56:55Z</time>
      </trkpt>
      <trkpt lat="44.16855" lon="1.73706">
        <ele>298</ele>
        <time>2012-09-15T13:56:55Z</time>
      </trkpt>
      <trkpt lat="44.16693" lon="1.73775">
        <ele>293</ele>
        <time>2012-09-15T13:56:55Z</time>
      </trkpt>
      <trkpt lat="44.16283" lon="1.73836">
        <ele>310</ele>
        <time>2012-09-15T13:56:55Z</time>
      </trkpt>
      <trkpt lat="44.16171" lon="1.73984">
        <ele>306</ele>
        <time>2012-09-15T13:56:55Z</time>
      </trkpt>
      <trkpt lat="44.16035" lon="1.74282">
        <ele>310</ele>
        <time>2012-09-15T13:56:55Z</time>
      </trkpt>
      <trkpt lat="44.15942" lon="1.74412">
        <ele>313</ele>
        <time>2012-09-15T13:56:55Z</time>
      </trkpt>
      <trkpt lat="44.15865" lon="1.7446">
        <ele>315</ele>
        <time>2012-09-15T13:56:55Z</time>
      </trkpt>
      <trkpt lat="44.15856" lon="1.74496">
        <ele>315</ele>
        <time>2012-09-15T13:56:55Z</time>
      </trkpt>
      <trkpt lat="44.15897" lon="1.74914">
        <ele>313</ele>
        <time>2012-09-15T13:56:55Z</time>
      </trkpt>
      <trkpt lat="44.15872" lon="1.75067">
        <ele>307</ele>
        <time>2012-09-15T13:56:55Z</time>
      </trkpt>
      <trkpt lat="44.1582" lon="1.75144">
        <ele>294</ele>
        <time>2012-09-15T13:56:55Z</time>
      </trkpt>
      <trkpt lat="44.15749" lon="1.75153">
        <ele>271</ele>
        <time>2012-09-15T13:56:55Z</time>
      </trkpt>
      <trkpt lat="44.15687" lon="1.75091">
        <ele>254</ele>
        <time>2012-09-15T13:56:55Z</time>
      </trkpt>
      <trkpt lat="44.15527" lon="1.75049">
        <ele>202</ele>
        <time>2012-09-15T13:56:55Z</time>
      </trkpt>
      <trkpt lat="44.15351" lon="1.74955">
        <ele>151</ele>
        <time>2012-09-15T13:56:55Z</time>
      </trkpt>
      <trkpt lat="44.1535" lon="1.75026">
        <ele>140</ele>
        <time>2012-09-15T13:56:55Z</time>
      </trkpt>
      <trkpt lat="44.15324" lon="1.75491">
        <ele>130</ele>
        <time>2012-09-15T13:56:55Z</time>
      </trkpt>
      <trkpt lat="44.15286" lon="1.75473">
        <ele>129</ele>
        <time>2012-09-15T13:56:55Z</time>
      </trkpt>
      <trkpt lat="44.15259" lon="1.75532">
        <ele>129</ele>
        <time>2012-09-15T13:56:55Z</time>
      </trkpt>
      <trkpt lat="44.15255" lon="1.75548">
        <ele>130</ele>
        <time>2012-09-15T13:56:55Z</time>
      </trkpt>
      <trkpt lat="44.15152" lon="1.7546">
        <ele>128</ele>
        <time>2012-09-15T13:56:55Z</time>
      </trkpt>
      <trkpt lat="44.15099" lon="1.75481">
        <ele>127</ele>
        <time>2012-09-15T13:56:55Z</time>
      </trkpt>
      <trkpt lat="44.15085" lon="1.75553">
        <ele>128</ele>
        <time>2012-09-15T13:56:55Z</time>
      </trkpt>
      <trkpt lat="44.14955" lon="1.75509">
        <ele>114</ele>
        <time>2012-09-15T13:56:55Z</time>
      </trkpt>
      <trkpt lat="44.14923" lon="1.75633">
        <ele>119</ele>
        <time>2012-09-15T13:56:55Z</time>
      </trkpt>
      <trkpt lat="44.14792" lon="1.7591">
        <ele>121</ele>
        <time>2012-09-15T13:56:55Z</time>
      </trkpt>
      <trkpt lat="44.14771" lon="1.76251">
        <ele>120</ele>
        <time>2012-09-15T13:56:55Z</time>
      </trkpt>
      <trkpt lat="44.14818" lon="1.76394">
        <ele>120</ele>
        <time>2012-09-15T13:56:55Z</time>
      </trkpt>
      <trkpt lat="44.14897" lon="1.76505">
        <ele>119</ele>
        <time>2012-09-15T13:56:55Z</time>
      </trkpt>
      <trkpt lat="44.14947" lon="1.7662">
        <ele>121</ele>
        <time>2012-09-15T13:56:55Z</time>
      </trkpt>
      <trkpt lat="44.15016" lon="1.76823">
        <ele>123</ele>
        <time>2012-09-15T13:56:55Z</time>
      </trkpt>
      <trkpt lat="44.14967" lon="1.76912">
        <ele>129</ele>
        <time>2012-09-15T13:56:55Z</time>
      </trkpt>
      <trkpt lat="44.14966" lon="1.77071">
        <ele>137</ele>
        <time>2012-09-15T13:56:55Z</time>
      </trkpt>
      <trkpt lat="44.14914" lon="1.77161">
        <ele>144</ele>
        <time>2012-09-15T13:56:55Z</time>
      </trkpt>
      <trkpt lat="44.14877" lon="1.77216">
        <ele>148</ele>
        <time>2012-09-15T13:56:55Z</time>
      </trkpt>
      <trkpt lat="44.14841" lon="1.77287">
        <ele>155</ele>
        <time>2012-09-15T13:56:55Z</time>
      </trkpt>
      <trkpt lat="44.1482" lon="1.77363">
        <ele>160</ele>
        <time>2012-09-15T13:56:55Z</time>
      </trkpt>
      <trkpt lat="44.14776" lon="1.77435">
        <ele>164</ele>
        <time>2012-09-15T13:56:55Z</time>
      </trkpt>
      <trkpt lat="44.14801" lon="1.77537">
        <ele>163</ele>
        <time>2012-09-15T13:56:55Z</time>
      </trkpt>
      <trkpt lat="44.14781" lon="1.77604">
        <ele>169</ele>
        <time>2012-09-15T13:56:55Z</time>
      </trkpt>
      <trkpt lat="44.14756" lon="1.77623">
        <ele>174</ele>
        <time>2012-09-15T13:56:55Z</time>
      </trkpt>
      <trkpt lat="44.14749" lon="1.77676">
        <ele>180</ele>
        <time>2012-09-15T13:56:55Z</time>
      </trkpt>
      <trkpt lat="44.14685" lon="1.77713">
        <ele>203</ele>
        <time>2012-09-15T13:56:55Z</time>
      </trkpt>
      <trkpt lat="44.14698" lon="1.77847">
        <ele>227</ele>
        <time>2012-09-15T13:56:55Z</time>
      </trkpt>
      <trkpt lat="44.14647" lon="1.78081">
        <ele>256</ele>
        <time>2012-09-15T13:56:55Z</time>
      </trkpt>
      <trkpt lat="44.14403" lon="1.78352">
        <ele>265</ele>
        <time>2012-09-15T13:56:55Z</time>
      </trkpt>
      <trkpt lat="44.14182" lon="1.7871">
        <ele>268</ele>
        <time>2012-09-15T13:56:55Z</time>
      </trkpt>
      <trkpt lat="44.13939" lon="1.79064">
        <ele>291</ele>
        <time>2012-09-15T13:56:55Z</time>
      </trkpt>
      <trkpt lat="44.13868" lon="1.79083">
        <ele>302</ele>
        <time>2012-09-15T13:56:55Z</time>
      </trkpt>
      <trkpt lat="44.1378" lon="1.79171">
        <ele>304</ele>
        <time>2012-09-15T13:56:55Z</time>
      </trkpt>
      <trkpt lat="44.13711" lon="1.7922">
        <ele>308</ele>
        <time>2012-09-15T13:56:55Z</time>
      </trkpt>
      <trkpt lat="44.13633" lon="1.79217">
        <ele>320</ele>
        <time>2012-09-15T13:56:55Z</time>
      </trkpt>
      <trkpt lat="44.13542" lon="1.79388">
        <ele>327</ele>
        <time>2012-09-15T13:56:55Z</time>
      </trkpt>
      <trkpt lat="44.13503" lon="1.79294">
        <ele>331</ele>
        <time>2012-09-15T13:56:55Z</time>
      </trkpt>
      <trkpt lat="44.13326" lon="1.79552">
        <ele>329</ele>
        <time>2012-09-15T13:56:55Z</time>
      </trkpt>
      <trkpt lat="44.13157" lon="1.79603">
        <ele>324</ele>
        <time>2012-09-15T13:56:55Z</time>
      </trkpt>
      <trkpt lat="44.13061" lon="1.79565">
        <ele>322</ele>
        <time>2012-09-15T13:56:55Z</time>
      </trkpt>
      <trkpt lat="44.1314" lon="1.79156">
        <ele>329</ele>
        <time>2012-09-15T13:56:55Z</time>
      </trkpt>
      <trkpt lat="44.12972" lon="1.78898">
        <ele>325</ele>
        <time>2012-09-15T13:56:55Z</time>
      </trkpt>
      <trkpt lat="44.12935" lon="1.7876">
        <ele>326</ele>
        <time>2012-09-15T13:56:55Z</time>
      </trkpt>
      <trkpt lat="44.12918" lon="1.78646">
        <ele>326</ele>
        <time>2012-09-15T13:56:55Z</time>
      </trkpt>
      <trkpt lat="44.12981" lon="1.78639">
        <ele>328</ele>
        <time>2012-09-15T13:56:55Z</time>
      </trkpt>
      <trkpt lat="44.12983" lon="1.78266">
        <ele>334</ele>
        <time>2012-09-15T13:56:55Z</time>
      </trkpt>
      <trkpt lat="44.12829" lon="1.78194">
        <ele>328</ele>
        <time>2012-09-15T13:56:55Z</time>
      </trkpt>
      <trkpt lat="44.12656" lon="1.78251">
        <ele>331</ele>
        <time>2012-09-15T13:56:55Z</time>
      </trkpt>
      <trkpt lat="44.12593" lon="1.78506">
        <ele>330</ele>
        <time>2012-09-15T13:56:55Z</time>
      </trkpt>
      <trkpt lat="44.12553" lon="1.78484">
        <ele>332</ele>
        <time>2012-09-15T13:56:55Z</time>
      </trkpt>
      <trkpt lat="44.12458" lon="1.78537">
        <ele>332</ele>
        <time>2012-09-15T13:56:55Z</time>
      </trkpt>
      <trkpt lat="44.12468" lon="1.78424">
        <ele>332</ele>
        <time>2012-09-15T13:56:55Z</time>
      </trkpt>
      <trkpt lat="44.12295" lon="1.78226">
        <ele>329</ele>
        <time>2012-09-15T13:56:55Z</time>
      </trkpt>
      <trkpt lat="44.12129" lon="1.78147">
        <ele>332</ele>
        <time>2012-09-15T13:56:55Z</time>
      </trkpt>
      <trkpt lat="44.12021" lon="1.7806">
        <ele>329</ele>
        <time>2012-09-15T13:56:55Z</time>
      </trkpt>
      <trkpt lat="44.11967" lon="1.7797">
        <ele>328</ele>
        <time>2012-09-15T13:56:55Z</time>
      </trkpt>
      <trkpt lat="44.11875" lon="1.77867">
        <ele>328</ele>
        <time>2012-09-15T13:56:55Z</time>
      </trkpt>
      <trkpt lat="44.11659" lon="1.77732">
        <ele>331</ele>
        <time>2012-09-15T13:56:55Z</time>
      </trkpt>
      <trkpt lat="44.11623" lon="1.77684">
        <ele>329</ele>
        <time>2012-09-15T13:56:55Z</time>
      </trkpt>
      <trkpt lat="44.11594" lon="1.77439">
        <ele>319</ele>
        <time>2012-09-15T13:56:55Z</time>
      </trkpt>
      <trkpt lat="44.11555" lon="1.77343">
        <ele>320</ele>
        <time>2012-09-15T13:56:55Z</time>
      </trkpt>
      <trkpt lat="44.11412" lon="1.77289">
        <ele>318</ele>
        <time>2012-09-15T13:56:55Z</time>
      </trkpt>
      <trkpt lat="44.11312" lon="1.77227">
        <ele>314</ele>
        <time>2012-09-15T13:56:55Z</time>
      </trkpt>
      <trkpt lat="44.11238" lon="1.77018">
        <ele>309</ele>
        <time>2012-09-15T13:56:55Z</time>
      </trkpt>
      <trkpt lat="44.11237" lon="1.76965">
        <ele>309</ele>
        <time>2012-09-15T13:56:55Z</time>
      </trkpt>
      <trkpt lat="44.11212" lon="1.76892">
        <ele>310</ele>
        <time>2012-09-15T13:56:55Z</time>
      </trkpt>
      <trkpt lat="44.11143" lon="1.7672">
        <ele>306</ele>
        <time>2012-09-15T13:56:55Z</time>
      </trkpt>
      <trkpt lat="44.11116" lon="1.76693">
        <ele>305</ele>
        <time>2012-09-15T13:56:55Z</time>
      </trkpt>
      <trkpt lat="44.11056" lon="1.76697">
        <ele>305</ele>
        <time>2012-09-15T13:56:55Z</time>
      </trkpt>
      <trkpt lat="44.10758" lon="1.7683">
        <ele>309</ele>
        <time>2012-09-15T13:56:55Z</time>
      </trkpt>
      <trkpt lat="44.10429" lon="1.77087">
        <ele>318</ele>
        <time>2012-09-15T13:56:55Z</time>
      </trkpt>
      <trkpt lat="44.10338" lon="1.77241">
        <ele>320</ele>
        <time>2012-09-15T13:56:55Z</time>
      </trkpt>
      <trkpt lat="44.10321" lon="1.77285">
        <ele>322</ele>
        <time>2012-09-15T13:56:55Z</time>
      </trkpt>
      <trkpt lat="44.10401" lon="1.77502">
        <ele>328</ele>
        <time>2012-09-15T13:56:55Z</time>
      </trkpt>
      <trkpt lat="44.10396" lon="1.7754">
        <ele>329</ele>
        <time>2012-09-15T13:56:55Z</time>
      </trkpt>
      <trkpt lat="44.10372" lon="1.77624">
        <ele>330</ele>
        <time>2012-09-15T13:56:55Z</time>
      </trkpt>
      <trkpt lat="44.10323" lon="1.777">
        <ele>331</ele>
        <time>2012-09-15T13:56:55Z</time>
      </trkpt>
      <trkpt lat="44.10302" lon="1.77929">
        <ele>333</ele>
        <time>2012-09-15T13:56:55Z</time>
      </trkpt>
      <trkpt lat="44.10252" lon="1.78061">
        <ele>332</ele>
        <time>2012-09-15T13:56:55Z</time>
      </trkpt>
      <trkpt lat="44.10239" lon="1.78083">
        <ele>330</ele>
        <time>2012-09-15T13:56:55Z</time>
      </trkpt>
      <trkpt lat="44.10199" lon="1.78022">
        <ele>329</ele>
        <time>2012-09-15T13:56:55Z</time>
      </trkpt>
      <trkpt lat="44.09973" lon="1.77652">
        <ele>326</ele>
        <time>2012-09-15T13:56:55Z</time>
      </trkpt>
      <trkpt lat="44.09922" lon="1.77423">
        <ele>322</ele>
        <time>2012-09-15T13:56:55Z</time>
      </trkpt>
      <trkpt lat="44.09809" lon="1.77301">
        <ele>323</ele>
        <time>2012-09-15T13:56:55Z</time>
      </trkpt>
      <trkpt lat="44.09764" lon="1.77215">
        <ele>322</ele>
        <time>2012-09-15T13:56:55Z</time>
      </trkpt>
      <trkpt lat="44.09766" lon="1.77145">
        <ele>321</ele>
        <time>2012-09-15T13:56:55Z</time>
      </trkpt>
      <trkpt lat="44.09628" lon="1.77062">
        <ele>314</ele>
        <time>2012-09-15T13:56:55Z</time>
      </trkpt>
      <trkpt lat="44.0953" lon="1.76909">
        <ele>313</ele>
        <time>2012-09-15T13:56:55Z</time>
      </trkpt>
      <trkpt lat="44.09425" lon="1.76662">
        <ele>312</ele>
        <time>2012-09-15T13:56:55Z</time>
      </trkpt>
      <trkpt lat="44.09359" lon="1.76585">
        <ele>318</ele>
        <time>2012-09-15T13:56:55Z</time>
      </trkpt>
      <trkpt lat="44.0923" lon="1.76466">
        <ele>317</ele>
        <time>2012-09-15T13:56:55Z</time>
      </trkpt>
      <trkpt lat="44.09058" lon="1.76384">
        <ele>300</ele>
        <time>2012-09-15T13:56:55Z</time>
      </trkpt>
      <trkpt lat="44.09002" lon="1.76328">
        <ele>294</ele>
        <time>2012-09-15T13:56:55Z</time>
      </trkpt>
      <trkpt lat="44.08879" lon="1.76019">
        <ele>302</ele>
        <time>2012-09-15T13:56:55Z</time>
      </trkpt>
      <trkpt lat="44.08728" lon="1.75695">
        <ele>286</ele>
        <time>2012-09-15T13:56:55Z</time>
      </trkpt>
      <trkpt lat="44.08785" lon="1.75519">
        <ele>286</ele>
        <time>2012-09-15T13:56:55Z</time>
      </trkpt>
      <trkpt lat="44.08839" lon="1.75229">
        <ele>280</ele>
        <time>2012-09-15T13:56:55Z</time>
      </trkpt>
      <trkpt lat="44.08872" lon="1.74984">
        <ele>279</ele>
        <time>2012-09-15T13:56:55Z</time>
      </trkpt>
      <trkpt lat="44.0889" lon="1.74804">
        <ele>289</ele>
        <time>2012-09-15T13:56:55Z</time>
      </trkpt>
      <trkpt lat="44.08891" lon="1.74725">
        <ele>292</ele>
        <time>2012-09-15T13:56:55Z</time>
      </trkpt>
      <trkpt lat="44.08823" lon="1.74371">
        <ele>268</ele>
        <time>2012-09-15T13:56:55Z</time>
      </trkpt>
      <trkpt lat="44.08825" lon="1.74337">
        <ele>271</ele>
        <time>2012-09-15T13:56:55Z</time>
      </trkpt>
      <trkpt lat="44.08807" lon="1.74332">
        <ele>266</ele>
        <time>2012-09-15T13:56:55Z</time>
      </trkpt>
      <trkpt lat="44.08767" lon="1.74397">
        <ele>231</ele>
        <time>2012-09-15T13:56:55Z</time>
      </trkpt>
      <trkpt lat="44.08788" lon="1.74543">
        <ele>225</ele>
        <time>2012-09-15T13:56:55Z</time>
      </trkpt>
      <trkpt lat="44.08742" lon="1.74821">
        <ele>179</ele>
        <time>2012-09-15T13:56:55Z</time>
      </trkpt>
      <trkpt lat="44.08679" lon="1.74736">
        <ele>144</ele>
        <time>2012-09-15T13:56:55Z</time>
      </trkpt>
      <trkpt lat="44.08681" lon="1.74516">
        <ele>147</ele>
        <time>2012-09-15T13:56:55Z</time>
      </trkpt>
      <trkpt lat="44.08667" lon="1.74448">
        <ele>151</ele>
        <time>2012-09-15T13:56:55Z</time>
      </trkpt>
      <trkpt lat="44.08588" lon="1.74266">
        <ele>151</ele>
        <time>2012-09-15T13:56:55Z</time>
      </trkpt>
      <trkpt lat="44.08354" lon="1.74159">
        <ele>123</ele>
        <time>2012-09-15T13:56:55Z</time>
      </trkpt>
      <trkpt lat="44.08337" lon="1.73966">
        <ele>121</ele>
        <time>2012-09-15T13:56:55Z</time>
      </trkpt>
      <trkpt lat="44.08297" lon="1.73865">
        <ele>112</ele>
        <time>2012-09-15T13:56:55Z</time>
      </trkpt>
      <trkpt lat="44.08232" lon="1.73936">
        <ele>116</ele>
        <time>2012-09-15T13:56:55Z</time>
      </trkpt>
      <trkpt lat="44.08143" lon="1.73833">
        <ele>120</ele>
        <time>2012-09-15T13:56:55Z</time>
      </trkpt>
      <trkpt lat="44.0803" lon="1.73689">
        <ele>123</ele>
        <time>2012-09-15T13:56:55Z</time>
      </trkpt>
      <trkpt lat="44.07858" lon="1.7337">
        <ele>123</ele>
        <time>2012-09-15T13:56:55Z</time>
      </trkpt>
      <trkpt lat="44.0782" lon="1.73242">
        <ele>122</ele>
        <time>2012-09-15T13:56:55Z</time>
      </trkpt>
      <trkpt lat="44.07808" lon="1.73121">
        <ele>122</ele>
        <time>2012-09-15T13:56:55Z</time>
      </trkpt>
      <trkpt lat="44.07843" lon="1.7296">
        <ele>125</ele>
        <time>2012-09-15T13:56:55Z</time>
      </trkpt>
      <trkpt lat="44.07922" lon="1.72752">
        <ele>135</ele>
        <time>2012-09-15T13:56:55Z</time>
      </trkpt>
      <trkpt lat="44.07963" lon="1.72673">
        <ele>124</ele>
        <time>2012-09-15T13:56:55Z</time>
      </trkpt>
      <trkpt lat="44.08211" lon="1.72837">
        <ele>127</ele>
        <time>2012-09-15T13:56:55Z</time>
      </trkpt>
      <trkpt lat="44.08372" lon="1.73096">
        <ele>143</ele>
        <time>2012-09-15T13:56:55Z</time>
      </trkpt>
      <trkpt lat="44.08395" lon="1.73167">
        <ele>142</ele>
        <time>2012-09-15T13:56:55Z</time>
      </trkpt>
      <trkpt lat="44.08471" lon="1.73296">
        <ele>147</ele>
        <time>2012-09-15T13:56:55Z</time>
      </trkpt>
      <trkpt lat="44.08514" lon="1.7331">
        <ele>153</ele>
        <time>2012-09-15T13:56:55Z</time>
      </trkpt>
      <trkpt lat="44.08591" lon="1.73217">
        <ele>167</ele>
        <time>2012-09-15T13:56:55Z</time>
      </trkpt>
      <trkpt lat="44.08614" lon="1.73118">
        <ele>177</ele>
        <time>2012-09-15T13:56:55Z</time>
      </trkpt>
      <trkpt lat="44.08475" lon="1.72809">
        <ele>212</ele>
        <time>2012-09-15T13:56:55Z</time>
      </trkpt>
      <trkpt lat="44.08433" lon="1.72751">
        <ele>214</ele>
        <time>2012-09-15T13:56:55Z</time>
      </trkpt>
      <trkpt lat="44.08429" lon="1.72699">
        <ele>222</ele>
        <time>2012-09-15T13:56:55Z</time>
      </trkpt>
      <trkpt lat="44.08473" lon="1.72738">
        <ele>227</ele>
        <time>2012-09-15T13:56:55Z</time>
      </trkpt>
      <trkpt lat="44.08505" lon="1.72747">
        <ele>231</ele>
        <time>2012-09-15T13:56:55Z</time>
      </trkpt>
      <trkpt lat="44.08544" lon="1.72795">
        <ele>229</ele>
        <time>2012-09-15T13:56:55Z</time>
      </trkpt>
      <trkpt lat="44.08558" lon="1.72795">
        <ele>232</ele>
        <time>2012-09-15T13:56:55Z</time>
      </trkpt>
      <trkpt lat="44.08552" lon="1.72757">
        <ele>238</ele>
        <time>2012-09-15T13:56:55Z</time>
      </trkpt>
      <trkpt lat="44.08462" lon="1.72571">
        <ele>251</ele>
        <time>2012-09-15T13:56:55Z</time>
      </trkpt>
      <trkpt lat="44.08449" lon="1.72478">
        <ele>261</ele>
        <time>2012-09-15T13:56:55Z</time>
      </trkpt>
      <trkpt lat="44.08463" lon="1.72283">
        <ele>271</ele>
        <time>2012-09-15T13:56:55Z</time>
      </trkpt>
      <trkpt lat="44.08347" lon="1.72067">
        <ele>282</ele>
        <time>2012-09-15T13:56:55Z</time>
      </trkpt>
      <trkpt lat="44.08332" lon="1.7193">
        <ele>279</ele>
        <time>2012-09-15T13:56:55Z</time>
      </trkpt>
      <trkpt lat="44.08319" lon="1.71824">
        <ele>278</ele>
        <time>2012-09-15T13:56:55Z</time>
      </trkpt>
      <trkpt lat="44.08227" lon="1.71679">
        <ele>275</ele>
        <time>2012-09-15T13:56:55Z</time>
      </trkpt>
      <trkpt lat="44.08146" lon="1.7165">
        <ele>278</ele>
        <time>2012-09-15T13:56:55Z</time>
      </trkpt>
      <trkpt lat="44.0798" lon="1.7151">
        <ele>276</ele>
        <time>2012-09-15T13:56:55Z</time>
      </trkpt>
      <trkpt lat="44.07911" lon="1.71417">
        <ele>284</ele>
        <time>2012-09-15T13:56:55Z</time>
      </trkpt>
      <trkpt lat="44.07819" lon="1.7136">
        <ele>281</ele>
        <time>2012-09-15T13:56:55Z</time>
      </trkpt>
      <trkpt lat="44.07791" lon="1.71278">
        <ele>292</ele>
        <time>2012-09-15T13:56:55Z</time>
      </trkpt>
      <trkpt lat="44.07821" lon="1.71223">
        <ele>298</ele>
        <time>2012-09-15T13:56:55Z</time>
      </trkpt>
      <trkpt lat="44.0781" lon="1.71161">
        <ele>300</ele>
        <time>2012-09-15T13:56:55Z</time>
      </trkpt>
      <trkpt lat="44.07774" lon="1.7109">
        <ele>302</ele>
        <time>2012-09-15T13:56:55Z</time>
      </trkpt>
      <trkpt lat="44.07778" lon="1.70828">
        <ele>302</ele>
        <time>2012-09-15T13:56:55Z</time>
      </trkpt>
      <trkpt lat="44.0776" lon="1.70596">
        <ele>295</ele>
        <time>2012-09-15T13:56:55Z</time>
      </trkpt>
      <trkpt lat="44.07739" lon="1.70526">
        <ele>288</ele>
        <time>2012-09-15T13:56:55Z</time>
      </trkpt>
      <trkpt lat="44.0774" lon="1.70493">
        <ele>286</ele>
        <time>2012-09-15T13:56:55Z</time>
      </trkpt>
      <trkpt lat="44.07766" lon="1.70468">
        <ele>284</ele>
        <time>2012-09-15T13:56:55Z</time>
      </trkpt>
      <trkpt lat="44.07933" lon="1.70566">
        <ele>275</ele>
        <time>2012-09-15T13:56:55Z</time>
      </trkpt>
      <trkpt lat="44.07963" lon="1.70573">
        <ele>274</ele>
        <time>2012-09-15T13:56:55Z</time>
      </trkpt>
      <trkpt lat="44.0799" lon="1.70549">
        <ele>270</ele>
        <time>2012-09-15T13:56:55Z</time>
      </trkpt>
      <trkpt lat="44.08083" lon="1.70252">
        <ele>281</ele>
        <time>2012-09-15T13:56:55Z</time>
      </trkpt>
      <trkpt lat="44.08169" lon="1.70098">
        <ele>271</ele>
        <time>2012-09-15T13:56:55Z</time>
      </trkpt>
      <trkpt lat="44.08337" lon="1.69873">
        <ele>253</ele>
        <time>2012-09-15T13:56:55Z</time>
      </trkpt>
      <trkpt lat="44.08343" lon="1.6975">
        <ele>258</ele>
        <time>2012-09-15T13:56:55Z</time>
      </trkpt>
      <trkpt lat="44.08448" lon="1.69557">
        <ele>265</ele>
        <time>2012-09-15T13:56:55Z</time>
      </trkpt>
      <trkpt lat="44.08442" lon="1.69514">
        <ele>267</ele>
        <time>2012-09-15T13:56:55Z</time>
      </trkpt>
      <trkpt lat="44.0841" lon="1.69472">
        <ele>269</ele>
        <time>2012-09-15T13:56:55Z</time>
      </trkpt>
      <trkpt lat="44.08366" lon="1.69332">
        <ele>271</ele>
        <time>2012-09-15T13:56:55Z</time>
      </trkpt>
      <trkpt lat="44.08394" lon="1.69076">
        <ele>272</ele>
        <time>2012-09-15T13:56:55Z</time>
      </trkpt>
      <trkpt lat="44.08414" lon="1.68976">
        <ele>271</ele>
        <time>2012-09-15T13:56:55Z</time>
      </trkpt>
      <trkpt lat="44.08157" lon="1.68817">
        <ele>267</ele>
        <time>2012-09-15T13:56:55Z</time>
      </trkpt>
      <trkpt lat="44.08185" lon="1.68592">
        <ele>266</ele>
        <time>2012-09-15T13:56:55Z</time>
      </trkpt>
      <trkpt lat="44.08284" lon="1.68232">
        <ele>252</ele>
        <time>2012-09-15T13:56:55Z</time>
      </trkpt>
      <trkpt lat="44.08278" lon="1.68104">
        <ele>250</ele>
        <time>2012-09-15T13:56:55Z</time>
      </trkpt>
      <trkpt lat="44.08335" lon="1.68027">
        <ele>250</ele>
        <time>2012-09-15T13:56:55Z</time>
      </trkpt>
      <trkpt lat="44.08304" lon="1.67909">
        <ele>248</ele>
        <time>2012-09-15T13:56:55Z</time>
      </trkpt>
      <trkpt lat="44.08312" lon="1.67749">
        <ele>242</ele>
        <time>2012-09-15T13:56:55Z</time>
      </trkpt>
      <trkpt lat="44.08331" lon="1.67664">
        <ele>238</ele>
        <time>2012-09-15T13:56:55Z</time>
      </trkpt>
      <trkpt lat="44.08432" lon="1.67471">
        <ele>235</ele>
        <time>2012-09-15T13:56:55Z</time>
      </trkpt>
      <trkpt lat="44.0847" lon="1.67288">
        <ele>230</ele>
        <time>2012-09-15T13:56:55Z</time>
      </trkpt>
      <trkpt lat="44.0844" lon="1.672">
        <ele>220</ele>
        <time>2012-09-15T13:56:55Z</time>
      </trkpt>
      <trkpt lat="44.08482" lon="1.6709">
        <ele>204</ele>
        <time>2012-09-15T13:56:55Z</time>
      </trkpt>
      <trkpt lat="44.08488" lon="1.67054">
        <ele>198</ele>
        <time>2012-09-15T13:56:55Z</time>
      </trkpt>
      <trkpt lat="44.08467" lon="1.67022">
        <ele>186</ele>
        <time>2012-09-15T13:56:55Z</time>
      </trkpt>
      <trkpt lat="44.08446" lon="1.67102">
        <ele>195</ele>
        <time>2012-09-15T13:56:55Z</time>
      </trkpt>
      <trkpt lat="44.08443" lon="1.67002">
        <ele>181</ele>
        <time>2012-09-15T13:56:55Z</time>
      </trkpt>
      <trkpt lat="44.08467" lon="1.66933">
        <ele>180</ele>
        <time>2012-09-15T13:56:55Z</time>
      </trkpt>
      <trkpt lat="44.0849" lon="1.66915">
        <ele>180</ele>
        <time>2012-09-15T13:56:55Z</time>
      </trkpt>
      <trkpt lat="44.08406" lon="1.66896">
        <ele>181</ele>
        <time>2012-09-15T13:56:55Z</time>
      </trkpt>
      <trkpt lat="44.08346" lon="1.66884">
        <ele>181</ele>
        <time>2012-09-15T13:56:55Z</time>
      </trkpt>
      <trkpt lat="44.08299" lon="1.6693">
        <ele>176</ele>
        <time>2012-09-15T13:56:55Z</time>
      </trkpt>
      <trkpt lat="44.08222" lon="1.66903">
        <ele>176</ele>
        <time>2012-09-15T13:56:55Z</time>
      </trkpt>
      <trkpt lat="44.08204" lon="1.66874">
        <ele>175</ele>
        <time>2012-09-15T13:56:55Z</time>
      </trkpt>
      <trkpt lat="44.0821" lon="1.66788">
        <ele>177</ele>
        <time>2012-09-15T13:56:55Z</time>
      </trkpt>
      <trkpt lat="44.08187" lon="1.6679">
        <ele>175</ele>
        <time>2012-09-15T13:56:55Z</time>
      </trkpt>
      <trkpt lat="44.0817" lon="1.66773">
        <ele>175</ele>
        <time>2012-09-15T13:56:55Z</time>
      </trkpt>
      <trkpt lat="44.08071" lon="1.66769">
        <ele>169</ele>
        <time>2012-09-15T13:56:55Z</time>
      </trkpt>
      <trkpt lat="44.07986" lon="1.66728">
        <ele>159</ele>
        <time>2012-09-15T13:56:55Z</time>
      </trkpt>
      <trkpt lat="44.07934" lon="1.66634">
        <ele>159</ele>
        <time>2012-09-15T13:56:55Z</time>
      </trkpt>
      <trkpt lat="44.07882" lon="1.66615">
        <ele>161</ele>
        <time>2012-09-15T13:56:55Z</time>
      </trkpt>
      <trkpt lat="44.07848" lon="1.66561">
        <ele>155</ele>
        <time>2012-09-15T13:56:55Z</time>
      </trkpt>
      <trkpt lat="44.07822" lon="1.6656">
        <ele>154</ele>
        <time>2012-09-15T13:56:55Z</time>
      </trkpt>
      <trkpt lat="44.07726" lon="1.66642">
        <ele>146</ele>
        <time>2012-09-15T13:56:55Z</time>
      </trkpt>
      <trkpt lat="44.07662" lon="1.66646">
        <ele>144</ele>
        <time>2012-09-15T13:56:55Z</time>
      </trkpt>
      <trkpt lat="44.07588" lon="1.66607">
        <ele>144</ele>
        <time>2012-09-15T13:56:55Z</time>
      </trkpt>
      <trkpt lat="44.07496" lon="1.66498">
        <ele>141</ele>
        <time>2012-09-15T13:56:55Z</time>
      </trkpt>
      <trkpt lat="44.0748" lon="1.66439">
        <ele>142</ele>
        <time>2012-09-15T13:56:55Z</time>
      </trkpt>
      <trkpt lat="44.07411" lon="1.66291">
        <ele>140</ele>
        <time>2012-09-15T13:56:55Z</time>
      </trkpt>
      <trkpt lat="44.07207" lon="1.66254">
        <ele>132</ele>
        <time>2012-09-15T13:56:55Z</time>
      </trkpt>
      <trkpt lat="44.07171" lon="1.66203">
        <ele>131</ele>
        <time>2012-09-15T13:56:55Z</time>
      </trkpt>
      <trkpt lat="44.07144" lon="1.66104">
        <ele>123</ele>
        <time>2012-09-15T13:56:55Z</time>
      </trkpt>
      <trkpt lat="44.06843" lon="1.65869">
        <ele>107</ele>
        <time>2012-09-15T13:56:55Z</time>
      </trkpt>
      <trkpt lat="44.06757" lon="1.6594">
        <ele>109</ele>
        <time>2012-09-15T13:56:55Z</time>
      </trkpt>
      <trkpt lat="44.06714" lon="1.66012">
        <ele>111</ele>
        <time>2012-09-15T13:56:55Z</time>
      </trkpt>
      <trkpt lat="44.06564" lon="1.66171">
        <ele>104</ele>
        <time>2012-09-15T13:56:55Z</time>
      </trkpt>
      <trkpt lat="44.06473" lon="1.663">
        <ele>103</ele>
        <time>2012-09-15T13:56:55Z</time>
      </trkpt>
      <trkpt lat="44.06378" lon="1.66484">
        <ele>109</ele>
        <time>2012-09-15T13:56:55Z</time>
      </trkpt>
      <trkpt lat="44.06311" lon="1.66561">
        <ele>108</ele>
        <time>2012-09-15T13:56:55Z</time>
      </trkpt>
      <trkpt lat="44.06081" lon="1.6674">
        <ele>112</ele>
        <time>2012-09-15T13:56:55Z</time>
      </trkpt>
      <trkpt lat="44.05936" lon="1.66804">
        <ele>113</ele>
        <time>2012-09-15T13:56:55Z</time>
      </trkpt>
      <trkpt lat="44.05796" lon="1.66827">
        <ele>110</ele>
        <time>2012-09-15T13:56:55Z</time>
      </trkpt>
      <trkpt lat="44.0574" lon="1.66928">
        <ele>106</ele>
        <time>2012-09-15T13:56:55Z</time>
      </trkpt>
    </trkseg>
  </trk>
</gpx>